Location: Burkhardsreuth
(49.7965°N, 11.8770°E)
Time: 07:25:31
(UTC+00:00)

Daily predictions for brighter satellites

Satellite Brightness Start Highest point End
(mag) Time Altitude Azimuth Time Altitude Azimuth Time Altitude Azimuth
Cosmos 1697 Rocket 3.0 19:09:39 10° NNW 19:15:11 53° NE 19:20:40 10° SE
MetOp-A 4.3 19:10:38 10° SSE 19:15:59 79° WSW 19:21:23 10° NNW
Cosmos 2228 Rocket 3.1 19:12:19 10° N 19:16:47 89° E 19:21:11 10° S
Cosmos 1833 Rocket 3.4 19:12:28 10° SSE 19:17:22 32° ESE 19:22:18 10° NE
Cosmos 389 Rocket 2.5 19:16:25 10° N 19:19:49 59° ENE 19:23:14 10° SSE
Cosmos 1812 2.9 19:17:55 10° N 19:21:43 54° ENE 19:25:28 10° SSE
Cosmos 1727 Rocket 4.2 19:15:23 10° N 19:21:47 88° W 19:28:09 10° S
SPOT 3 Rocket 3.6 19:16:57 10° SSE 19:22:10 85° ENE 19:27:24 10° NNW
Cosmos 1633 Rocket 4.4 19:19:16 10° SE 19:22:40 22° E 19:26:04 10° NE
Cosmos 2251 Rocket 3.6 19:18:58 10° SSW 19:24:14 90° N 19:29:35 10° NNE
Cosmos 1656 3.8 19:21:19 10° NNW 19:26:49 81° WSW 19:32:21 10° SSE
Cosmos 1707 Rocket 3.9 19:26:56 10° N 19:31:09 47° ENE 19:35:20 10° SSE
Cosmos 220 Rocket 3.9 19:27:09 10° NNW 19:31:24 81° ENE 19:35:37 10° SSE
Cosmos 1633 4.2 19:28:31 10° SW 19:31:50 37° WNW 19:35:10 10° N
IRIDIUM 104 4.3 19:27:15 10° S 19:32:26 70° E 19:37:38 10° N
Cosmos 972 Rocket 4.4 19:28:12 10° NNW 19:33:11 60° WSW 19:37:58 10° S
Resurs 01 Rocket 1.6 19:28:52 10° SSE 19:33:16 77° ENE 19:37:43 10° NNW
Landsat 7 4.4 19:30:23 10° SE 19:34:50 41° ENE 19:39:19 10° N
Cosmos 1441 Rocket 3.2 19:35:15 10° S 19:38:59 58° E 19:42:42 10° NNE
IRIDIUM 114 4.3 19:36:21 10° S 19:41:34 83° E 19:46:49 10° N
Cosmos 2360 4.4 19:36:28 10° NNW 19:42:13 65° ENE 19:47:32 12° SE
Cosmos 614 Rocket 4.0 19:37:39 10° S 19:42:43 60° ESE 19:47:51 10° NNE
IGS 5A 3.9 19:41:07 11° SE 19:44:56 46° ENE 19:48:55 10° N
Cosmos 1900 4.4 19:41:09 10° SW 19:46:05 90° W 19:51:11 10° NE
USA 267 3.3 19:40:48 10° ENE 19:47:15 57° SE 19:53:40 10° SW
GP-B 3.8 19:45:29 10° NNE 19:49:37 36° E 19:53:14 13° SSE
IRIDIUM 103 4.4 19:45:30 10° S 19:50:43 83° W 19:55:59 10° N
Cosmos 1821 Rocket 4.0 19:46:50 10° S 19:52:57 79° E 19:59:12 10° NNE
Shenzhou-11 Module 3.5 19:53:44 10° SW 19:55:07 14° S 19:55:30 14° S
COSMOS 2406 3.2 19:49:23 10° SSW 19:55:08 82° ESE 20:00:55 10° NNE
Cosmos 921 Rocket 4.1 19:51:27 10° N 19:55:12 29° ENE 19:58:03 15° ESE
CZ-2C R/B 4.0 19:50:51 10° NNE 19:55:31 74° WNW 20:00:03 10° SSW
Intercosmos 25 3.7 19:52:53 10° NNW 19:57:40 68° W 20:01:03 10° S
Cosmos 1862 Rocket 4.1 19:53:22 10° N 19:57:41 45° ENE 20:01:01 16° SE
SL-16 R/B 3.7 19:52:58 10° NNW 19:57:41 26° NE 20:02:23 10° E
ERS-1 Rocket 3.6 19:56:08 14° SE 20:00:01 41° ENE 20:04:43 10° N
Lacrosse 5 2.8 19:56:15 10° WNW 20:01:09 45° NNE 20:06:02 10° E
Cosmos 2369 3.8 19:57:16 10° NNW 20:03:03 82° WSW 20:08:05 14° SSE
Cosmos 1862 4.1 20:00:20 10° SSW 20:04:18 55° WNW 20:08:19 10° N
Sich 1 3.1 20:00:44 10° S 20:05:11 85° W 20:09:40 10° N
Cosmos 1818 4.0 20:02:28 10° NW 20:07:49 56° WSW 20:12:24 14° SSE
BREEZE-M DEB (TANK) 1.5 20:06:02 10° W 20:08:52 80° S 20:09:54 24° E
Cosmos 2082 Rocket 2.4 20:04:51 10° S 20:10:17 49° ESE 20:15:45 10° NE
Cosmos 2278 3.7 20:06:35 10° NNW 20:12:21 83° ENE 20:16:44 18° SSE
Cosmos 2123 Rocket 4.0 20:06:07 10° N 20:12:22 80° E 20:18:06 13° SSE
Meteor 2-20 4.5 20:07:57 10° N 20:14:09 88° W 20:20:08 11° S
Spot 2 Rocket 3.5 20:11:25 13° SSE 20:15:58 88° WSW 20:21:07 10° NNW
Cosmos 1535 Rocket 4.4 20:09:59 10° S 20:16:05 69° E 20:22:10 10° NNE
Meteor 1-4 Rocket 2.5 20:16:37 10° NNW 20:20:07 79° W 20:22:26 20° S
Cosmos 2322 Rocket 3.5 20:15:17 10° NNW 20:20:15 30° NE 20:24:25 13° E
Cosmos 1184 Rocket 3.0 20:21:01 24° SSE 20:22:44 50° E 20:25:57 10° NNE
CARTOSAT-1 3.7 20:20:05 21° SE 20:22:47 58° ENE 20:27:03 10° N
CZ-2C R/B 4.4 20:18:24 10° N 20:22:59 33° WNW 20:27:34 10° SW
Cosmos 1190 Rocket 4.0 20:17:47 10° SSW 20:23:03 78° ESE 20:28:23 10° NNE
USA 234 3.3 20:18:46 18° SE 20:23:52 76° SW 20:30:27 10° WNW
Terra 2.5 20:21:08 20° SE 20:23:56 41° ENE 20:28:25 10° N
Cosmos 407 Rocket 3.6 20:20:40 10° SSW 20:26:00 84° WNW 20:31:20 10° NNE
Cosmos 1933 Rocket 4.2 20:24:16 23° SE 20:26:23 37° E 20:30:28 10° NNE
Cosmos 1605 Rocket 4.1 20:21:08 13° SSE 20:26:24 57° E 20:32:22 10° NNE
Cosmos 1666 Rocket 3.6 20:22:28 10° SSW 20:26:47 77° WNW 20:31:08 10° N
Meteor 1-20 Rocket 4.4 20:23:25 14° S 20:28:13 55° E 20:33:56 10° NNE
Cosmos 1238 Rocket 2.7 20:28:02 33° ESE 20:28:38 37° E 20:31:25 10° NNE
Okean 1 3.9 20:25:48 10° N 20:29:41 43° ENE 20:31:27 27° SE
Meteor 1-27 Rocket 4.5 20:25:00 10° NNW 20:30:44 54° W 20:36:30 10° S
Cosmos 1602 4.4 20:31:37 28° SE 20:32:56 36° E 20:36:34 10° NNE
ATLAS 3B R/B 4.5 20:34:00 10° E 20:34:00 10° E 20:34:19 10° E
Cosmos 1437 Rocket 3.7 20:30:42 10° N 20:34:10 32° ENE 20:35:27 26° ESE
Cosmos 2360 Rocket 3.9 20:29:44 10° NNW 20:34:17 24° NE 20:38:35 11° E
CZ-4B DEB 4.3 20:35:36 31° SSE 20:37:05 89° ENE 20:40:27 10° NNW
SPOT 5 2.6 20:35:54 26° SSE 20:38:15 71° ENE 20:42:36 10° N
ERBS 4.3 20:35:28 10° W 20:38:27 30° NNW 20:41:27 10° NE
USA 238 DEB 3.9 20:32:46 10° S 20:39:01 46° ESE 20:45:32 10° NE
USA 238 3.9 20:32:54 10° S 20:39:07 46° ESE 20:45:38 10° NE
Meteor 1-19 Rocket 4.4 20:33:53 10° N 20:39:14 55° ENE 20:42:13 26° SE
Iridium 4 Rocket 4.5 20:41:58 21° E 20:42:56 22° E 20:46:14 10° NNE
Cosmos 1980 Rocket 2.4 20:37:49 10° NNW 20:43:30 68° WSW 20:47:05 23° SSE
SPOT 1/Viking Rocket 3.9 20:39:53 17° S 20:43:53 64° WSW 20:49:07 10° NNW
Cosmos 1703 Rocket 3.9 20:41:08 10° N 20:45:23 49° ENE 20:47:06 31° SE
Cosmos 2242 Rocket 3.6 20:40:59 10° N 20:45:26 67° ENE 20:47:29 31° SSE
Cosmos 1763 Rocket 3.8 20:43:09 10° NNW 20:48:26 57° ENE 20:51:08 28° SE
SL-4 R/B 1.7 20:45:14 10° SW 20:49:03 58° SSE 20:51:35 18° E
Genesis I 3.5 20:45:30 10° NW 20:49:18 55° SW 20:50:44 33° S
BREEZE-M DEB (TANK) 2.8 20:46:45 10° W 20:49:46 87° S 20:58:48 10° E
Cosmos 405 Rocket 2.7 20:49:21 38° SSE 20:50:29 57° E 20:54:09 10° NNE
Cosmos 1140 Rocket 3.8 20:46:29 10° SSW 20:51:42 67° WNW 20:56:58 10° NNE
ATLAS 5 CENTAUR R/B 4.3 20:47:42 10° WNW 20:52:00 21° WSW 20:56:44 10° SSW
Cosmos 2333 Rocket 4.4 20:50:12 10° N 20:54:06 18° NNE 20:58:00 10° ENE
FAST 4.4 20:51:44 10° N 20:54:34 63° E 20:54:41 62° E
USA 32 4.2 20:53:02 14° SSW 20:57:29 73° W 21:02:44 10° N
Cosmos 1697 Rocket 4.1 20:54:04 10° NW 20:58:52 30° WSW 21:03:04 13° SSW
Cosmos 1633 Rocket 4.2 20:55:57 10° SSW 21:00:11 44° WNW 21:04:26 10° N
Cosmos 1833 Rocket 3.6 20:55:38 10° SW 21:01:05 50° NW 21:06:35 10° NNE
Meteor 1-18 Rocket 4.2 21:01:15 10° NNW 21:06:53 84° W 21:09:50 29° S
Okean 1-7 3.0 21:02:45 10° N 21:07:07 73° E 21:08:30 42° SSE
Cosmos 1153 Rocket 4.4 21:03:26 24° S 21:07:15 74° E 21:13:26 10° NNE
Cosmos 1867 3.5 21:02:00 10° SW 21:07:27 87° SE 21:12:57 10° NE
CENTAUR R/B 2.9 21:04:46 27° S 21:07:32 43° ESE 21:14:03 10° NE
Resurs 01 Rocket 4.2 21:08:05 10° WSW 21:10:19 14° W 21:12:34 10° WNW
Okean 3 4.3 21:09:05 10° N 21:13:05 37° ENE 21:13:59 33° ESE
FALCON 9 DEB 3.0 21:11:15 10° WSW 21:14:44 73° SSE 21:15:22 55° E
Cosmos 1850 Rocket 4.1 21:14:18 35° SSE 21:16:20 56° ESE 21:21:30 10° NNE
Meteor 2-4 Rocket 3.7 21:10:52 10° N 21:16:36 69° ENE 21:18:53 36° SSE
Cosmos 1515 3.6 21:13:40 10° NNW 21:17:31 82° W 21:18:22 52° S
SL-27 R/B 3.8 21:19:37 25° ENE 21:19:37 25° ENE 21:21:29 10° NE
Cosmos 44 3.7 21:16:15 10° NNW 21:21:01 55° NE 21:23:08 32° ESE
ATLAS 5 CENTAUR R/B 2.3 21:18:47 10° NW 21:21:18 54° NE 21:23:25 29° ESE
SWARM C 4.4 21:19:10 10° N 21:22:31 80° W 21:22:47 72° SSW
SWARM A 4.3 21:19:16 10° N 21:22:37 72° W 21:22:57 64° SW
Spot 4 4.5 21:27:26 34° ESE 21:28:50 44° ENE 21:33:25 10° N
USA 267 3.6 21:23:54 10° ENE 21:30:22 66° NNW 21:36:51 10° WSW
Cosmos 921 Rocket 4.2 21:29:43 10° NW 21:33:30 32° W 21:34:51 26° SW
NOSS 3-2 (A) 3.4 21:27:45 10° SW 21:33:31 89° WNW 21:40:15 10° NE
ERS-1 Rocket 4.3 21:36:09 19° SW 21:38:54 31° W 21:43:23 10° NNW
NOSS 3-2 (C) 3.3 21:35:51 24° SSW 21:39:25 69° SE 21:45:59 10° NE
Cosmos 841 Rocket 3.4 21:35:12 10° NNW 21:40:27 79° ENE 21:42:00 47° SE
Cosmos 540 Rocket 3.4 21:36:42 10° NNW 21:41:54 79° ENE 21:43:22 48° SE
SL-16 R/B 2.2 21:36:43 10° NNW 21:42:24 75° WSW 21:44:17 43° S
Lacrosse 5 1.8 21:39:20 10° WNW 21:44:23 71° SW 21:45:31 52° SSE
Cosmos 1741 Rocket 4.0 21:48:23 34° SSW 21:50:45 84° WNW 21:56:05 10° NNE
Cosmos 1570 Rocket 4.0 21:46:23 10° NNW 21:51:44 83° WSW 21:53:10 50° SSE
Tsikada Rocket 4.2 21:46:24 10° N 21:52:44 59° ENE 21:54:55 39° SE
Cosmos 2219 Rocket 3.6 21:48:25 10° NNW 21:53:28 31° NE 21:56:38 19° E
Cosmos 2208 Rocket 3.9 21:48:32 10° NNW 21:53:51 87° ENE 21:55:11 52° SSE
Cosmos 1814 Rocket 3.9 21:49:00 10° NNW 21:54:14 84° ENE 21:55:32 52° SSE
Cosmos 2082 Rocket 3.7 21:49:20 10° WSW 21:54:34 36° NW 21:59:47 10° NNE
Cosmos 2084 Rocket 4.0 21:59:01 43° E 21:59:01 43° E 22:02:18 10° NE
Cosmos 2237 4.2 21:53:04 10° NNW 21:58:50 78° ENE 22:00:35 46° SE
Terra 3.3 22:00:02 22° SW 22:01:48 28° W 22:05:56 10° NW
Cosmos 2322 Rocket 2.3 21:59:06 10° NW 22:04:44 63° WSW 22:06:13 46° S
EO 1 Del DPAF 3.9 22:01:57 10° NNE 22:04:57 42° ENE 22:04:57 42° ENE
USA 234 4.4 22:06:06 24° SSW 22:07:36 26° SW 22:12:55 10° WNW
Cosmos 2100 Rocket 4.2 22:05:35 31° SSW 22:08:38 65° WNW 22:14:46 10° N
Meteor 1-11 Rocket 3.6 22:09:09 51° S 22:10:36 76° E 22:16:21 10° NNE
Cosmos 1242 Rocket 3.1 22:09:00 10° N 22:12:07 53° NE 22:12:07 53° NE
Helios 1A 4.5 22:13:11 25° E 22:13:51 26° ENE 22:17:23 10° N
Cosmos 1869 Rocket 4.4 22:13:01 36° WSW 22:14:16 46° WNW 22:18:36 10° N
Cosmos 2360 Rocket 2.1 22:13:18 10° NNW 22:19:01 85° WSW 22:20:19 55° SSE
COSMOS 2428 3.7 22:14:35 10° NNW 22:20:01 41° NE 22:22:36 27° ESE
Geosat 4.4 22:20:48 44° SW 22:21:31 47° WSW 22:26:23 10° NW
ATLAS 3B R/B 2.7 22:21:13 47° SSE 22:22:29 54° ESE 22:28:56 10° NE
Iridium 4 Rocket 4.0 22:21:45 34° WSW 22:22:43 39° W 22:26:43 10° N
Cosmos 2173 Rocket 4.5 22:21:11 29° SW 22:24:15 54° WNW 22:30:17 10° N
CRYOSAT 2 4.5 22:20:57 10° N 22:25:49 70° W 22:26:46 55° SW
ALOS 2 2.5 22:27:44 76° ESE 22:27:57 79° ENE 22:32:22 10° NNW
SL-4 R/B 3.0 22:24:57 10° W 22:27:13 33° WNW 22:27:13 33° WNW
Cosmos 1725 Rocket 4.0 22:27:20 45° SSW 22:29:27 83° W 22:35:50 10° N
USA 238 DEB 4.3 22:23:22 10° WSW 22:29:55 54° NW 22:36:48 10° NE
USA 238 4.3 22:23:28 10° WSW 22:30:01 54° NW 22:36:54 10° NE
Nimbus 7 Rocket 4.4 22:25:11 10° NNE 22:31:02 65° ESE 22:32:15 52° SSE
Cosmos 1674 Rocket 3.4 22:28:50 10° N 22:33:12 89° E 22:33:13 88° ESE
SL-08 R/B 4.5 22:32:19 45° SSW 22:34:19 75° W 22:40:26 10° N
Cosmos 1536 2.9 22:34:39 69° WNW 22:34:39 69° WNW 22:38:31 10° N
Cosmos 1666 3.3 22:37:32 49° WNW 22:37:32 49° WNW 22:41:00 10° N
Cosmos 1743 3.5 22:38:17 43° ENE 22:38:17 43° ENE 22:41:23 10° NNE
Cosmos 2333 Rocket 2.5 22:33:49 10° NNW 22:39:34 64° ENE 22:41:19 44° ESE
Cosmos 1356 4.5 22:41:30 43° NW 22:41:30 43° NW 22:44:16 10° N
Cosmos 1271 Rocket 3.2 22:37:31 10° N 22:40:47 56° NE 22:40:47 56° NE
Cosmos 2016 Rocket 4.4 22:39:51 35° SW 22:42:28 58° WNW 22:48:47 10° N
Cosmos 2237 Rocket 3.8 22:38:42 10° NNW 22:43:36 29° NE 22:47:33 14° E
Cosmos 2061 Rocket 4.4 22:41:23 35° SW 22:43:52 57° WNW 22:50:00 10° N
Lacrosse 4 Rocket 2.5 22:45:23 35° ENE 22:45:23 35° ENE 22:48:16 10° NE
MOS 1-B Rocket 4.4 22:38:43 10° N 22:44:18 52° WNW 22:46:43 31° SW
Cosmos 1733 Rocket 3.3 22:50:59 56° W 22:51:17 57° WNW 22:55:39 10° N
Cosmos 1066 Rocket 4.4 22:47:03 10° NNW 22:52:41 58° W 22:53:46 49° SW
Meteor 2-11 Rocket 4.4 22:51:23 54° SSE 22:52:42 71° E 22:58:47 10° NNE
Thor Agena Rocket 4.0 22:50:37 10° N 22:55:33 53° WNW 22:57:00 40° WSW
Cosmos 44 Rocket 3.9 22:51:04 10° NW 22:55:57 55° NE 22:57:31 39° E
Cosmos 836 Rocket 4.3 22:52:10 10° NNW 22:57:25 89° ENE 22:58:03 69° SSE
CENTAUR R/B 3.2 22:51:55 10° WSW 22:58:03 56° NW 23:05:22 10° NE
Cosmos 968 Rocket 3.5 22:59:01 59° ESE 22:59:10 59° ESE 23:04:14 10° NNE
Cosmos 1975 3.7 23:02:22 41° ENE 23:02:22 41° ENE 23:05:39 10° NNE
SL-24 DEB 4.1 23:00:14 10° N 23:05:03 81° E 23:05:18 77° SE
Cosmos 1782 Rocket 4.0 23:10:37 51° E 23:10:37 51° E 23:14:36 10° NNE
USA 267 4.2 23:06:43 10° ENE 23:12:55 48° N 23:19:08 10° WNW
Cosmos 1378 4.3 23:09:40 10° NNW 23:12:29 37° WNW 23:12:29 37° WNW
Cosmos 1707 4.1 23:12:40 10° N 23:16:11 30° ENE 23:16:14 30° ENE
Cosmos 2233 Rocket 4.3 23:14:31 41° SW 23:16:32 60° WNW 23:22:49 10° N
Cosmos 1464 Rocket 4.2 23:15:36 48° SE 23:17:04 61° E 23:23:11 10° NNE
Cosmos 1842 3.6 23:14:14 10° N 23:17:41 65° N 23:17:41 65° N
Cosmos 1908 Rocket 3.5 23:18:33 75° WNW 23:18:33 75° WNW 23:22:53 10° N
Helios 1B rocket 3.7 23:18:35 10° NNE 23:21:48 30° E 23:21:48 30° E
CZ-4 R/B 4.4 23:17:51 10° NNE 23:22:40 46° E 23:23:00 45° ESE
Cosmos 2227 Rocket 4.0 23:22:42 17° ESE 23:23:23 17° E 23:26:56 10° ENE
Meteor 1-21 4.2 23:18:16 10° N 23:24:07 81° ENE 23:25:21 57° SSE
SL-16 R/B 4.3 23:23:00 10° WNW 23:25:31 13° W 23:26:08 13° WSW
Lacrosse 5 4.0 23:23:29 10° W 23:24:41 14° W 23:24:41 14° W
Cosmos 2322 4.0 23:23:44 10° NW 23:29:09 48° WSW 23:29:31 47° WSW
COSMOS 2487 3.9 23:32:14 32° NW 23:32:14 32° NW 23:34:58 10° N
Nadezhda 4 Rocket 4.1 23:29:51 10° N 23:36:11 72° E 23:38:03 47° SSE
Cosmos 2219 Rocket 2.3 23:32:12 10° NW 23:37:47 58° WSW 23:38:19 56° SW
Cosmos 783 Rocket 4.3 23:36:28 10° NNW 23:41:44 83° WSW 23:42:23 69° S
Cosmos 1975 Rocket 3.1 23:38:03 10° NNW 23:42:25 67° W 23:42:25 67° W
Cosmos 1513 Rocket 4.5 23:42:38 52° SSW 23:44:21 86° W 23:50:50 10° N
Okean 2 Rocket 3.6 23:45:22 49° E 23:45:29 49° E 23:49:51 10° NNE
Cosmos 2034 Rocket 4.0 23:43:53 50° SSE 23:45:32 71° E 23:51:50 10° NNE
Cosmos 1503 Rocket 4.0 23:45:55 64° SSW 23:46:48 85° WNW 23:52:13 10° NNE
Cosmos 2322 Rocket 4.4 23:46:37 10° W 23:47:37 10° W 23:48:01 10° W
Cosmos 1072 Rocket 4.4 23:46:51 53° SSW 23:48:22 77° W 23:54:31 10° N
Helios 1A 4.0 23:49:48 36° W 23:49:48 36° W 23:53:14 10° NNW
Landsat 4 4.0 23:45:53 10° NNE 23:49:12 65° N 23:49:12 65° N
Cosmos 1092 Rocket 4.3 23:44:11 10° N 23:50:23 59° ENE 23:52:45 37° SE
SL-16 R/B 3.6 23:46:15 18° ESE 23:50:28 41° ENE 23:56:14 10° N
ERBS 4.0 23:49:04 10° NW 23:51:02 30° NNW 23:51:02 30° NNW
Cosmos 1300 Rocket 3.9 23:52:28 52° E 23:52:29 52° E 23:56:41 10° NNE
CZ-2D R/B 3.8 23:48:45 10° NE 23:53:06 24° E 23:54:54 20° ESE
SL-16 R/B 3.6 23:48:38 10° NNW 23:53:52 35° NE 23:59:02 10° ESE
Cosmos 1544 4.3 23:54:38 34° NW 23:54:38 34° NW 23:57:34 10° N
Sich 1 Rocket 3.4 23:55:31 87° W 23:55:32 87° W 23:59:58 10° N
